Location: Hurecourt
(47.9030°N, 6.0653°E)
Time: 08:11:07
(UTC+00:00)

Landsat 5 - Pass Details

Date: 14 July 2020
Orbit: 529 x 654 km, 98.2° (Epoch: 14 August)

Event Time Altitude Azimuth Distance (km) Brightness Sun altitude
Rises 03:07:32 0° 168° (SSE) 2,717 6.5 -6.6°
Reaches altitude 10° 03:09:40 10° 170° (S) 1,813 5.6 -6.3°
Maximum altitude 03:13:34 75° 257° (WSW) 562 3.2 -5.9°
Drops below altitude 10° 03:17:25 10° 343° (NNW) 1,792 6.3 -5.4°
Sets 03:19:32 0° 345° (NNW) 2,684 7.2 -5.1°
